Simultaneous Nadir Overpasses (SNOs) Predictions

Prediction of SNOs between GOES-15 and LANDSAT-8 Satellite Orbit:

Table of predicted SNOs for the next 14.0 days since TLE Epoch: 3/26/2022
Index Date Time (GOES-15) GOES-15 Lat,Lon LANDSAT-8 Lat,Lon Distance(km) Time Diff (sec)
1 03/26/2022 18:45:13 -0.06,-128.31 -0.11,-127.95 40.29 80
2 03/28/2022 18:33:00 -0.06,-128.35 -0.75,-124.99 381.34 80
3 03/29/2022 06:51:43 0.07,-128.33 -0.34,-130.19 211.11 80
4 03/31/2022 06:42:11 0.06,-128.38 0.31,-127.23 130.26 80
5 03/31/2022 19:00:45 -0.07,-128.42 0.78,-132.39 451.85 80
6 04/02/2022 06:29:58 0.06,-128.42 0.97,-124.28 471.49 80
7 04/02/2022 18:48:32 -0.07,-128.46 0.12,-129.43 110.73 80
8 04/04/2022 18:38:58 -0.07,-128.49 -0.48,-126.47 229.84 80
9 04/05/2022 06:57:42 0.08,-128.47 -0.60,-131.66 362.80 80
10 04/07/2022 06:45:28 0.09,-128.50 0.02,-128.70 23.22 80
